Theta_e
319 317 320 318 320 320 323 326 324 331 331 341 346 347 356 354 354 353 352 351 349 348 346 346 347 348 348 347 347 347 346 345 343 345 345 346 347 348 347 346 346 346 346 348
317 318 317 317 317 318 320 325 327 328 332 344 344 347 348 356 355 354 352 351 349 348 348 347 347 348 348 349 348 347 346 346 340 344 346 348 349 350 351 346 346 346 347 347
322 320 318 317 317 318 319 320 323 327 328 337 343 345 352 357 355 352 351 350 346 348 349 349 347 347 348 349 349 348 346 346 344 342 347 347 347 347 349 347 346 345 347 347
324 323 319 319 318 318 319 319 320 323 327 334 340 347 350 355 360 357 353 350 349 347 347 348 347 347 347 348 349 348 348 347 346 342 346 347 348 348 349 350 348 345 346 346
325 324 322 320 319 318 318 317 318 320 324 328 331 343 342 350 360 360 357 354 350 348 347 348 347 347 347 348 348 348 348 347 346 345 343 348 349 349 349 349 347 346 345 345
319 317 323 324 321 318 318 321 319 319 319 322 329 335 342 349 354 357 357 356 354 351 348 348 347 347 347 348 348 348 348 347 346 346 345 345 348 350 349 349 348 349 349 348
320 320 319 320 323 321 319 319 322 325 324 321 322 330 333 337 347 348 354 356 355 353 351 349 349 348 348 347 348 348 349 347 346 347 347 345 346 348 349 349 348 347 348 349
320 319 321 318 321 323 323 323 323 326 325 322 322 329 332 331 331 344 348 351 354 354 353 352 351 349 349 349 348 348 349 349 347 346 347 346 345 348 348 348 347 348 346 347
321 321 316 318 319 321 324 325 323 324 326 328 323 325 327 331 332 333 338 347 352 354 354 353 351 350 349 349 350 348 349 348 348 347 347 347 347 347 348 347 346 347 346 346
314 307 311 317 317 320 323 324 326 326 327 328 328 327 326 329 332 334 335 339 345 350 352 353 353 351 350 349 349 349 348 349 348 347 347 348 347 346 346 347 346 345 346 345
312 311 307 310 317 323 323 324 327 327 328 328 327 329 329 329 333 333 334 336 342 344 348 350 352 352 351 349 349 349 349 349 349 348 347 348 348 348 348 348 348 346 343 345
313 313 310 308 309 315 317 322 325 330 332 332 330 329 327 331 330 333 334 335 338 343 344 347 348 350 351 351 350 349 349 349 349 349 348 348 348 349 349 349 349 348 345 344
314 314 311 309 314 317 317 319 320 321 324 332 334 330 330 331 330 329 331 332 337 343 345 346 346 351 351 352 351 350 350 349 349 349 349 349 349 349 349 349 349 349 347 344
314 314 310 306 310 310 315 316 317 318 326 327 331 333 332 331 331 332 331 329 328 340 344 347 347 348 349 350 352 351 350 349 348 349 349 350 350 350 349 349 349 350 348 346
312 312 311 310 308 308 311 312 314 317 320 325 327 330 331 333 333 335 334 330 333 331 344 348 347 350 348 349 351 351 351 349 349 349 349 350 350 350 350 350 350 350 350 348
311 311 311 310 307 310 311 313 314 316 317 319 322 326 326 329 340 335 340 342 342 343 337 343 348 350 350 346 349 352 351 350 349 350 350 350 351 351 351 350 351 350 350 349
311 311 310 307 309 315 316 314 316 317 321 321 326 326 331 333 342 337 336 335 338 342 346 343 341 350 350 346 347 350 351 350 349 350 351 351 352 352 351 351 351 352 352 352
310 310 310 310 309 313 314 320 318 319 322 321 324 327 329 339 339 335 331 331 334 337 341 347 347 338 346 345 346 349 349 350 350 350 350 351 352 352 352 352 351 351 352 352
309 311 311 310 312 315 324 322 321 324 322 319 320 323 325 335 342 341 327 326 330 334 340 346 350 335 342 344 347 349 350 351 351 351 351 351 352 352 353 353 353 352 352 352
310 311 312 310 316 326 325 319 318 321 328 317 318 321 323 337 345 336 323 323 329 334 340 351 347 340 343 346 347 351 351 352 352 352 352 351 351 352 353 354 354 354 354 354
311 312 312 311 312 314 316 314 317 330 325 317 317 319 322 326 325 321 321 326 331 336 343 351 346 346 348 347 348 351 352 353 352 352 352 352 352 353 353 353 354 355 355 355
311 312 312 311 312 317 310 315 323 318 316 316 317 317 318 319 319 319 320 323 326 331 336 346 352 348 347 348 349 351 352 351 352 353 353 354 354 353 354 355 355 355 356 357
316 313 316 316 317 312 310 314 316 317 317 316 317 317 317 317 318 320 320 321 320 321 322 328 337 338 343 352 349 349 351 350 352 353 354 355 355 355 355 357 357 358 358 357
310 309 312 313 313 312 311 314 314 315 317 315 315 316 316 315 317 320 321 321 321 319 319 319 321 325 328 331 337 344 354 353 350 352 353 355 356 356 356 357 357 357 358 359
312 311 312 312 312 313 312 313 315 314 315 315 315 316 316 316 315 318 320 322 322 322 320 319 319 319 321 323 325 328 337 354 355 353 352 352 353 355 357 357 357 358 358 359
312 311 312 314 312 315 314 315 315 316 316 315 315 316 316 316 316 316 319 318 319 321 320 319 318 318 319 319 319 323 325 331 346 352 357 357 358 357 355 355 354 355 357 358
Wind_Speed
8 12 21 23 16 13 6 9 11 6 9 14 17 16 12 15 14 16 18 20 22 24 26 29 29 28 26 26 25 25 24 23 21 18 18 16 15 12 12 13 11 11 11 9
6 18 20 13 12 14 15 9 11 9 7 8 14 21 11 17 19 20 22 22 22 22 22 28 30 31 31 29 28 27 27 25 27 21 18 14 15 11 8 11 11 11 11 10
15 4 15 14 16 15 19 21 12 7 3 11 9 16 13 15 14 16 18 18 17 23 25 24 31 33 32 33 31 29 30 29 29 24 18 16 12 12 9 9 12 12 13 12
13 18 9 17 22 19 19 17 16 15 7 11 16 13 15 14 19 20 20 21 22 24 23 23 29 33 36 35 32 30 30 30 30 30 23 22 20 17 15 12 12 13 14 14
8 10 18 15 15 18 16 9 18 18 14 11 12 11 16 12 17 21 22 24 24 24 25 25 29 36 35 33 32 31 30 32 32 31 29 24 21 18 15 15 16 16 15 13
7 6 8 19 13 18 10 5 11 12 14 17 22 14 16 14 18 18 21 22 24 25 26 25 33 33 34 33 32 32 31 34 36 34 32 30 24 20 17 17 19 17 15 14
1 6 6 7 11 17 17 14 7 6 9 18 18 17 16 9 14 18 20 24 25 25 24 24 25 30 33 35 35 33 32 33 36 34 32 33 30 27 25 23 21 19 17 16
3 8 3 4 10 9 22 20 8 13 9 13 17 13 16 23 20 11 14 17 21 23 23 25 27 32 35 37 36 36 35 34 35 36 36 36 36 29 29 28 24 21 19 19
2 4 2 1 4 4 14 22 23 11 2 9 13 17 14 13 16 23 16 14 19 24 25 27 28 36 37 37 38 38 36 36 34 36 36 36 37 36 29 30 31 23 22 16
1 5 2 3 5 12 10 12 18 12 17 14 7 18 14 22 19 15 21 20 19 21 24 24 25 34 37 40 40 39 39 37 38 37 36 34 37 39 37 31 33 29 25 21
1 3 2 5 5 8 8 11 10 14 17 11 15 10 10 17 21 21 17 19 21 22 24 25 24 34 38 38 38 40 39 37 36 37 38 36 34 34 32 30 30 32 31 26
2 2 5 8 12 7 9 6 13 13 20 18 15 8 3 12 19 21 22 18 21 23 23 23 23 30 34 36 38 41 40 39 39 38 36 36 35 33 30 32 29 29 31 30
6 3 4 5 5 5 4 3 7 11 13 18 16 17 19 14 9 9 10 13 13 17 16 17 19 21 28 35 37 38 39 41 40 38 36 35 35 33 34 34 31 27 31 33
6 4 8 8 10 10 10 10 12 7 12 17 17 16 20 21 14 10 8 8 9 11 15 17 18 20 26 33 36 37 37 39 38 38 37 36 35 36 36 35 31 28 32 33
4 7 8 13 15 14 18 22 20 16 15 11 18 18 14 19 19 21 13 5 5 5 12 17 20 18 21 29 33 35 36 36 37 36 36 36 36 37 35 30 30 29 29 31
4 4 7 15 14 16 22 23 22 21 21 16 18 17 11 12 8 5 8 8 9 8 9 15 19 19 20 29 34 38 38 39 39 37 37 36 34 33 33 33 31 30 31 30
7 4 4 11 10 18 14 25 24 19 12 18 19 14 8 10 4 6 7 9 11 12 10 14 18 19 22 32 36 38 41 37 38 36 35 34 34 33 33 33 31 32 32 28
8 6 2 8 9 10 12 6 22 19 5 6 11 6 8 8 6 7 9 9 11 13 14 15 14 19 31 35 35 30 35 37 36 35 35 34 34 34 31 30 31 31 28 30
15 8 5 5 6 15 12 4 13 17 4 4 7 5 6 7 6 2 14 13 13 13 14 17 22 26 23 30 32 33 34 35 35 35 35 35 34 31 30 30 30 28 26 26
15 15 9 6 6 7 3 12 11 3 5 7 6 7 9 6 5 5 15 14 13 12 13 14 19 22 26 29 34 33 33 34 35 36 36 32 32 31 31 30 31 30 29 28
8 8 14 12 8 12 7 21 12 6 5 5 8 9 11 8 6 6 11 11 9 11 13 8 11 19 23 29 32 30 30 33 33 29 29 30 33 34 33 32 29 28 28 25
7 8 6 7 10 12 11 14 3 4 3 6 8 10 10 9 8 9 10 11 14 16 21 21 17 15 15 23 28 25 22 22 24 26 28 29 30 30 27 28 25 26 25 25
4 4 1 3 2 6 11 10 7 6 3 7 8 10 9 9 10 10 10 11 14 16 21 24 23 27 27 18 13 14 12 19 25 27 27 27 26 27 25 26 24 23 24 23
1 1 3 3 2 10 10 8 10 9 7 8 9 9 10 10 11 9 10 10 12 15 18 23 28 27 26 26 25 20 11 7 19 21 21 21 24 25 25 23 24 24 23 23
4 7 7 2 2 11 12 9 10 11 7 7 8 9 11 10 10 10 10 10 10 13 17 21 22 22 23 26 28 24 24 13 8 10 12 13 15 20 19 21 20 22 23 24
8 8 5 3 11 7 8 11 12 9 9 8 8 10 11 10 9 10 8 10 13 12 16 19 21 22 22 24 24 23 22 19 14 13 10 11 7 9 15 16 16 22 21 23
Wind_Direction
180 195 209 208 212 228 256 234 241 219 216 202 230 225 202 181 191 187 188 190 195 198 194 195 197 197 197 201 200 201 201 205 199 197 192 195 202 211 230 235 225 218 228 231
179 221 223 225 213 216 230 246 233 248 234 218 218 243 211 191 201 195 192 193 197 196 195 197 198 199 200 201 203 202 205 207 206 202 196 193 191 205 214 216 204 208 216 223
211 246 200 201 205 213 224 234 229 244 332 226 246 241 214 208 212 205 205 204 197 198 199 197 198 201 201 202 204 203 205 209 209 205 201 202 197 207 207 208 211 209 211 220
227 234 208 208 213 210 230 226 243 251 274 226 213 240 213 195 205 207 202 200 200 201 205 201 201 204 203 204 206 203 206 208 213 210 205 203 202 201 206 203 208 212 213 222
198 204 208 218 218 206 233 224 225 237 249 271 243 237 234 196 207 209 209 206 204 201 202 204 204 205 205 202 205 205 204 208 211 211 209 209 209 210 208 209 217 217 215 217
249 305 225 224 213 205 210 161 215 234 239 246 233 231 228 204 214 209 213 211 207 203 202 206 207 206 206 205 203 204 202 207 212 213 210 212 209 205 204 211 215 217 218 220
309 221 223 210 200 201 205 209 208 211 211 238 223 237 234 222 220 216 207 211 208 207 203 203 202 202 203 202 203 201 200 202 208 209 210 212 215 214 214 213 218 216 220 219
236 206 200 22 227 215 208 208 204 210 218 234 217 235 222 228 239 238 236 217 206 206 207 205 203 200 201 199 196 197 199 202 203 207 211 215 218 219 223 225 225 230 232 231
259 246 343 238 321 232 203 213 218 259 242 254 216 235 264 228 236 229 223 214 203 206 205 207 204 201 198 198 198 195 197 200 202 207 210 213 218 220 222 223 231 233 235 232
115 286 32 317 295 232 239 209 209 223 241 234 209 226 232 209 224 222 225 216 211 209 210 209 204 203 201 199 197 195 198 198 200 206 210 213 216 223 224 223 227 226 232 235
169 275 273 302 199 235 195 219 216 232 231 235 239 230 238 229 213 217 218 218 219 213 211 209 205 202 200 196 195 196 197 198 199 203 207 211 216 217 218 220 226 230 234 234
127 262 273 269 272 285 301 280 263 227 224 232 257 247 199 228 220 217 224 219 218 218 214 210 204 200 200 198 195 196 199 199 200 203 204 207 212 213 213 218 222 226 229 231
167 197 281 256 197 140 223 231 260 274 270 244 225 229 264 273 248 231 235 240 231 223 220 208 202 197 196 197 197 197 198 201 201 199 203 206 208 211 212 218 219 220 226 230
160 195 260 272 319 324 285 294 301 299 245 229 241 250 240 248 265 258 258 266 268 227 210 202 200 200 197 198 197 196 197 201 200 197 201 203 205 208 213 216 215 216 225 228
194 234 225 267 284 293 278 273 268 262 261 251 231 240 259 244 252 262 295 253 253 221 201 201 203 196 195 194 196 196 197 196 196 195 196 201 205 208 211 211 211 215 220 227
175 232 231 274 284 289 271 260 255 251 255 251 265 260 267 284 291 289 320 315 293 279 256 223 213 202 194 194 194 193 194 193 190 193 196 198 201 205 205 207 209 211 220 225
194 228 267 269 321 325 266 245 240 240 239 223 221 225 302 288 356 15 348 329 311 300 278 259 234 210 199 197 194 191 191 187 189 191 195 195 197 200 204 206 203 208 213 218
184 191 259 283 320 278 250 292 214 199 181 249 260 266 295 260 136 55 13 333 313 304 295 280 262 229 207 202 198 189 183 184 186 190 193 193 195 198 200 202 204 208 211 213
215 188 232 255 265 275 224 64 154 169 114 357 290 304 298 258 231 285 1 341 325 313 300 281 262 238 207 196 186 181 179 181 185 192 194 193 194 195 197 201 204 207 207 214
208 211 213 234 271 241 94 343 323 281 176 19 349 22 345 215 188 8 342 341 335 326 304 282 247 198 184 184 179 173 177 181 190 192 193 190 190 194 197 200 202 205 210 216
179 195 214 229 253 272 318 326 292 210 96 17 13 39 38 73 46 335 341 4 0 4 3 7 180 172 168 166 169 172 178 192 193 188 188 187 191 194 199 201 203 204 208 215
171 187 206 222 227 249 348 313 262 37 47 31 20 27 38 43 30 11 354 14 26 35 37 49 69 93 130 154 165 172 181 185 181 181 184 188 190 195 203 201 202 206 208 215
180 246 287 225 219 280 294 280 8 342 359 15 14 15 15 26 22 14 6 10 19 33 44 52 68 69 62 77 143 142 158 181 180 181 188 191 193 198 199 199 200 204 208 215
301 322 251 251 20 13 291 344 350 352 346 348 2 0 18 19 20 17 17 19 20 24 30 38 50 53 52 54 59 53 54 183 186 189 192 191 192 195 198 201 203 206 207 212
307 311 301 258 325 319 258 306 340 332 341 3 5 359 8 15 10 10 14 16 19 22 20 34 44 48 46 44 44 39 46 62 128 174 188 193 200 198 202 206 207 210 213 213
3 8 356 346 318 312 292 350 2 358 0 5 358 356 356 3 358 353 360 8 12 17 20 26 31 36 34 37 40 38 36 40 61 76 103 104 109 190 203 207 222 220 217 219